Location: Ostrava
(49.8330°N, 18.2830°E)
Time: 05:19:42
(UTC+02:00)

Lacrosse 5 - Visible Passes

Search period start: 24 April 2014 00:00
Search period end: 04 May 2014 00:00
Orbit: 707 x 720 km, 57.0° (Epoch: 19 April)

Date Brightness Start Highest point End Pass type
(mag) Time Alt. Az. Time Alt. Az. Time Alt. Az.
24 Apr 2.4 01:05:54 10° NW 01:10:52 55° NNE 01:13:46 24° E visible
24 Apr 2.3 02:48:54 10° WNW 02:52:42 41° W 02:52:42 41° W visible
24 Apr 2.1 20:43:30 10° WSW 20:48:34 74° NNW 20:53:37 10° NE visible
24 Apr 3.3 22:27:17 10° WNW 22:32:00 38° N 22:36:43 10° ENE visible
25 Apr 2.9 00:10:54 10° WNW 00:15:44 43° NNE 00:19:18 17° E visible
25 Apr 1.9 01:53:53 10° WNW 01:58:18 66° W 01:58:18 66° W visible
25 Apr 3.0 21:31:58 10° W 21:36:48 44° NNW 21:41:38 10° ENE visible
25 Apr 3.2 23:15:49 10° WNW 23:20:32 38° N 23:25:13 10° ENE visible
26 Apr 2.0 00:58:56 10° NW 01:03:59 72° NNE 01:04:28 67° ENE visible
26 Apr 3.7 02:42:08 10° WNW 02:43:29 17° WNW 02:43:29 17° WNW visible
26 Apr 2.6 20:36:42 10° WSW 20:41:40 56° NNW 20:46:39 10° NE visible
26 Apr 3.3 22:20:37 10° WNW 22:25:17 36° N 22:29:57 10° ENE visible
27 Apr 2.5 00:03:59 10° NW 00:08:56 52° NNE 00:10:52 33° E visible
27 Apr 2.9 01:46:58 10° WNW 01:49:54 33° W 01:49:54 33° W visible
27 Apr 3.2 21:25:19 10° WNW 21:30:03 39° N 21:34:46 10° ENE visible
27 Apr 2.9 23:08:58 10° WNW 23:13:47 42° NNE 23:17:24 16° E visible
28 Apr 1.9 00:51:58 10° WNW 00:56:27 70° WNW 00:56:27 70° WNW visible
28 Apr 3.0 20:29:59 10° W 20:34:51 45° NNW 20:39:43 10° ENE visible
28 Apr 3.2 22:13:52 10° WNW 22:18:34 37° N 22:23:15 10° ENE visible
28 Apr 2.0 23:57:01 10° NW 00:02:04 68° NNE 00:03:04 53° E visible
29 Apr 3.5 01:40:09 10° WNW 01:42:07 21° W 01:42:07 21° W visible
29 Apr 3.3 21:18:38 10° WNW 21:23:19 36° N 21:27:59 10° ENE visible
29 Apr 2.6 23:02:04 10° NW 23:06:59 50° NNE 23:09:46 24° E visible
30 Apr 2.4 00:45:01 10° WNW 00:48:49 45° W 00:48:49 45° W visible
30 Apr 3.0 22:07:02 10° WNW 22:11:49 41° NNE 22:16:30 10° E visible
30 Apr 1.7 23:50:02 10° WNW 23:55:06 88° SW 23:55:33 75° SE visible
01 May 4.0 01:33:35 10° WNW 01:34:36 14° W 01:34:36 14° W visible
01 May 3.2 21:11:54 10° WNW 21:16:36 37° N 21:21:16 10° ENE visible
01 May 2.1 22:55:06 10° NW 23:00:08 65° NNE 23:02:20 33° E visible
02 May 3.0 00:38:11 10° WNW 00:41:23 31° W 00:41:23 31° W visible
02 May 2.6 22:00:08 10° NW 22:05:02 48° NNE 22:09:08 14° E visible
02 May 1.8 23:43:05 10° WNW 23:48:04 61° SW 23:48:12 61° SSW visible
03 May 3.0 21:05:05 10° WNW 21:09:51 40° NNE 21:14:36 10° E visible
03 May 1.8 22:48:07 10° WNW 22:53:11 87° NNE 22:55:03 40° ESE visible
